When you browse on this site, cookies collect data to enhance your experience and personalize the content and advertising you see.
Visit our Privacy Policy to learn more. By continuing to use the site, you agree to this use of cookies and data.
  • In Romania
  • List of Countries
  • For 7 days
  • Water Temperature
  • Weather Map
  • Weather Widgets
  • user-avatar
    Login

    Hourly Weather Ventyan

    Today, 31 March, Tuesday

    Time Temperature Precipitation Wind Pressure Humidity
    00:00 +33°C° 0 mm 1 mps 742 mmHg 30%
    01:00 +32°C° 0 mm 1 mps 742 mmHg 33%
    02:00 +31°C° 0 mm 1 mps 741 mmHg 35%
    03:00 +30°C° 0 mm 1 mps 741 mmHg 37%
    04:00 +30°C° 0 mm 1 mps 741 mmHg 38%
    05:00 +30°C° 0 mm 1 mps 742 mmHg 39%
    06:00 +30°C° 0 mm 1 mps 742 mmHg 41%
    07:00 +30°C° 0 mm 1 mps 743 mmHg 40%
    08:00 +33°C° 0 mm 1 mps 744 mmHg 35%
    09:00 +36°C° 0 mm 1 mps 744 mmHg 30%
    10:00 +39°C° 0 mm 1 mps 744 mmHg 25%
    11:00 +41°C° 0 mm 1 mps 744 mmHg 23%
    12:00 +42°C° 0 mm 1 mps 743 mmHg 20%
    13:00 +44°C° 0 mm 1 mps 742 mmHg 17%
    14:00 +43°C° 0 mm 1 mps 741 mmHg 17%
    15:00 +43°C° 0 mm 1 mps 740 mmHg 16%
    16:00 +43°C° 0 mm 1 mps 739 mmHg 15%
    17:00 +41°C° 0 mm 1 mps 740 mmHg 17%
    18:00 +40°C° 0 mm 1 mps 740 mmHg 18%
    19:00 +37°C° 0 mm 1 mps 740 mmHg 20%
    20:00 +36°C° 0 mm 1 mps 741 mmHg 21%
    21:00 +36°C° 0 mm 1 mps 741 mmHg 22%
    22:00 +36°C° 0 mm 2 mps 742 mmHg 22%
    23:00 +35°C° 0 mm 2 mps 742 mmHg 24%

    Tomorrow, 1 April, Wednesday

    Time Temperature Precipitation Wind Pressure Humidity
    00:00 +33°C° 0 mm 1 mps 742 mmHg 27%
    01:00 +32°C° 0 mm 1 mps 741 mmHg 29%
    02:00 +32°C° 0 mm 2 mps 741 mmHg 33%
    03:00 +31°C° 0 mm 2 mps 741 mmHg 37%
    04:00 +30°C° 0 mm 3 mps 741 mmHg 42%
    05:00 +30°C° 0 mm 3 mps 742 mmHg 47%
    06:00 +30°C° 0 mm 3 mps 742 mmHg 52%
    07:00 +30°C° 0 mm 2 mps 743 mmHg 56%
    08:00 +32°C° 0 mm 2 mps 743 mmHg 51%
    09:00 +35°C° 0 mm 2 mps 744 mmHg 45%
    10:00 +38°C° 0 mm 2 mps 744 mmHg 40%
    11:00 +40°C° 0 mm 2 mps 743 mmHg 34%
    12:00 +42°C° 0 mm 1 mps 743 mmHg 29%
    13:00 +44°C° 0 mm 1 mps 742 mmHg 23%
    14:00 +44°C° 0 mm 1 mps 741 mmHg 22%
    15:00 +44°C° 0 mm 1 mps 740 mmHg 20%
    16:00 +43°C° 0 mm 2 mps 740 mmHg 19%
    17:00 +42°C° 0 mm 2 mps 740 mmHg 22%
    18:00 +40°C° 0 mm 3 mps 740 mmHg 26%
    19:00 +38°C° 0 mm 3 mps 740 mmHg 29%
    20:00 +37°C° 0 mm 3 mps 741 mmHg 32%
    21:00 +36°C° 0 mm 2 mps 742 mmHg 34%
    22:00 +36°C° 0 mm 2 mps 743 mmHg 37%
    23:00 +35°C° 0.4 mm 2 mps 742 mmHg 42%

    Day after tomorrow, 2 April, Thursday

    Time Temperature Precipitation Wind Pressure Humidity
    00:00 +34°C° 0.4 mm 3 mps 742 mmHg 47%
    01:00 +33°C° 0.4 mm 3 mps 742 mmHg 53%
    02:00 +31°C° 0 mm 3 mps 742 mmHg 56%
    03:00 +31°C° 0 mm 3 mps 742 mmHg 59%
    04:00 +30°C° 0 mm 3 mps 742 mmHg 62%
    05:00 +30°C° 0 mm 2 mps 742 mmHg 63%
    06:00 +30°C° 0 mm 2 mps 743 mmHg 63%
    07:00 +30°C° 0 mm 1 mps 743 mmHg 64%
    08:00 +32°C° 0 mm 2 mps 744 mmHg 57%
    09:00 +35°C° 0 mm 2 mps 744 mmHg 51%
    10:00 +37°C° 0 mm 3 mps 744 mmHg 44%
    11:00 +38°C° 0 mm 2 mps 744 mmHg 40%
    12:00 +40°C° 0 mm 2 mps 743 mmHg 35%
    13:00 +41°C° 0 mm 2 mps 742 mmHg 31%
    14:00 +41°C° 0 mm 2 mps 741 mmHg 30%
    15:00 +41°C° 0 mm 2 mps 741 mmHg 30%
    16:00 +41°C° 0 mm 1 mps 740 mmHg 30%
    17:00 +39°C° 0.2 mm 2 mps 741 mmHg 33%
    18:00 +37°C° 0.2 mm 2 mps 741 mmHg 37%
    19:00 +35°C° 0.2 mm 3 mps 742 mmHg 41%
    20:00 +35°C° 0.1 mm 2 mps 742 mmHg 44%
    21:00 +34°C° 0.1 mm 2 mps 743 mmHg 47%
    22:00 +32°C° 0.1 mm 2 mps 743 mmHg 50%
    23:00 +31°C° 0.4 mm 2 mps 743 mmHg 54%

    3 April, Friday

    Time Temperature Precipitation Wind Pressure Humidity
    00:00 +30°C° 0.4 mm 2 mps 743 mmHg 59%
    01:00 +30°C° 0.4 mm 2 mps 743 mmHg 63%
    02:00 +29°C° 0 mm 2 mps 743 mmHg 65%
    03:00 +29°C° 0 mm 2 mps 743 mmHg 67%
    04:00 +29°C° 0 mm 3 mps 743 mmHg 69%
    05:00 +28°C° 0 mm 2 mps 743 mmHg 70%
    06:00 +28°C° 0 mm 2 mps 744 mmHg 70%
    07:00 +28°C° 0 mm 1 mps 744 mmHg 71%
    08:00 +30°C° 0 mm 2 mps 745 mmHg 63%
    09:00 +34°C° 0 mm 2 mps 745 mmHg 55%
    10:00 +36°C° 0 mm 3 mps 745 mmHg 47%
    11:00 +37°C° 0 mm 2 mps 745 mmHg 42%
    12:00 +39°C° 0 mm 2 mps 744 mmHg 37%
    13:00 +41°C° 0 mm 2 mps 743 mmHg 32%
    14:00 +41°C° 0 mm 1 mps 742 mmHg 31%
    15:00 +41°C° 0 mm 1 mps 742 mmHg 30%
    16:00 +41°C° 0 mm 1 mps 741 mmHg 29%
    17:00 +38°C° 0.2 mm 2 mps 742 mmHg 37%
    18:00 +35°C° 0.2 mm 4 mps 742 mmHg 45%
    19:00 +33°C° 0.2 mm 5 mps 742 mmHg 53%
    20:00 +32°C° 0.3 mm 4 mps 743 mmHg 58%
    21:00 +31°C° 0.3 mm 3 mps 744 mmHg 62%
    22:00 +30°C° 0.3 mm 2 mps 744 mmHg 66%
    23:00 +30°C° 0 mm 1 mps 744 mmHg 67%

    4 April, Saturday

    Time Temperature Precipitation Wind Pressure Humidity
    00:00 +29°C° 0 mm 1 mps 744 mmHg 68%
    01:00 +27°C° 0 mm 0 mps 743 mmHg 69%
    02:00 +28°C° 0 mm 1 mps 743 mmHg 71%
    03:00 +28°C° 0 mm 1 mps 743 mmHg 72%
    04:00 +28°C° 0 mm 1 mps 743 mmHg 74%
    05:00 +28°C° 0 mm 1 mps 744 mmHg 73%
    06:00 +28°C° 0 mm 2 mps 744 mmHg 72%
    07:00 +28°C° 0 mm 2 mps 745 mmHg 71%
    08:00 +30°C° 0 mm 2 mps 745 mmHg 63%
    09:00 +34°C° 0 mm 2 mps 745 mmHg 55%
    10:00 +36°C° 0 mm 2 mps 745 mmHg 47%
    11:00 +38°C° 0 mm 2 mps 745 mmHg 42%
    12:00 +39°C° 0 mm 1 mps 744 mmHg 37%
    13:00 +41°C° 0 mm 1 mps 743 mmHg 31%
    14:00 +41°C° 0 mm 1 mps 743 mmHg 31%
    15:00 +41°C° 0 mm 1 mps 742 mmHg 30%
    16:00 +41°C° 0 mm 2 mps 742 mmHg 29%
    17:00 +39°C° 0.1 mm 2 mps 742 mmHg 35%
    18:00 +37°C° 0.1 mm 2 mps 742 mmHg 41%
    19:00 +35°C° 0.1 mm 2 mps 742 mmHg 47%
    20:00 +34°C° 0.7 mm 2 mps 743 mmHg 52%
    21:00 +32°C° 0.7 mm 2 mps 743 mmHg 57%
    22:00 +30°C° 0.7 mm 1 mps 744 mmHg 61%
    23:00 +30°C° 0 mm 2 mps 744 mmHg 63%

    5 April, Sunday

    Time Temperature Precipitation Wind Pressure Humidity
    00:00 +30°C° 0 mm 2 mps 744 mmHg 64%
    01:00 +29°C° 0 mm 2 mps 744 mmHg 66%
    02:00 +29°C° 0 mm 2 mps 743 mmHg 68%
    03:00 +29°C° 0 mm 2 mps 743 mmHg 71%
    04:00 +28°C° 0 mm 2 mps 743 mmHg 73%
    05:00 +28°C° 0.1 mm 2 mps 744 mmHg 73%
    06:00 +28°C° 0.1 mm 2 mps 744 mmHg 73%
    07:00 +28°C° 0.1 mm 2 mps 745 mmHg 74%
    08:00 +30°C° 0.1 mm 2 mps 745 mmHg 66%
    09:00 +33°C° 0.1 mm 3 mps 746 mmHg 58%
    10:00 +35°C° 0.1 mm 3 mps 746 mmHg 50%
    11:00 +36°C° 0.1 mm 3 mps 745 mmHg 45%
    12:00 +38°C° 0.1 mm 3 mps 745 mmHg 41%
    13:00 +39°C° 0.1 mm 3 mps 744 mmHg 36%
    14:00 +39°C° 0 mm 2 mps 743 mmHg 35%
    15:00 +39°C° 0 mm 2 mps 742 mmHg 33%
    16:00 +40°C° 0 mm 2 mps 742 mmHg 32%
    17:00 +37°C° 0.3 mm 2 mps 742 mmHg 42%
    18:00 +34°C° 0.3 mm 3 mps 742 mmHg 51%
    19:00 +32°C° 0.3 mm 4 mps 743 mmHg 60%
    20:00 +30°C° 0.2 mm 3 mps 743 mmHg 62%
    21:00 +30°C° 0.2 mm 3 mps 744 mmHg 64%
    22:00 +29°C° 0.2 mm 2 mps 744 mmHg 67%
    23:00 +29°C° 0.1 mm 2 mps 744 mmHg 69%
    Show more